Torna al catalogo

QUBE

AttivoScienzaSSO
NORAD 60476·PAYLOAD·🇩🇪 Germany

Lanciato Aug 16, 2024 da Vandenberg Space Force Base

Loading…

Prossimi Passaggi (prossime 24 ore)

TLE

AggiornatoSource: Space-Track

Epoca: Sep 13, 2026, 18:57 UTC

1 60476U 24149J   26256.79001437  .00027142  00000-0  46159-3 0  9999
2 60476  97.3751 345.1803 0001282 222.5304 137.5849 15.51404449116183

Traccia QUBE in tempo reale con AllMySat

Download on the App Store